Regional Weather Roundup
Issued by NWS

Home | Current Version | Previous Version | Text Only | Print | Product List | Glossary On
Versions: 1 2 3 4 5 6 7 8 9 10 11 12 13 14 15 16 17 18 19 20 21 22 23 24 25 26 27 28 29 30 31 32 33 34 35 36 37 38 39 40 41 42 43 44 45 46 47 48 49 50
594
ASUS46 KSEW 292210
RWRWA

WASHINGTON REGIONAL WEATHER ROUNDUP
NATIONAL WEATHER SERVICE SEATTLE WA
300 PM PDT WED MAR 29 2017

NOTE:"FAIR" INDICATES FEW OR NO CLOUDS BELOW 12,000 FEET WITH NO
SIGNIFICANT WEATHER AND/OR OBSTRUCTIONS TO VISIBILITY.

WAZ507-509-555>559-292300-
SEATTLE, TACOMA, EVERETT, AND VICINITY

CITY           SKY/WX    TMP DP  RH WIND       PRES   REMARKS
EVERETT        CLOUDY    56  48  74 SE31G39   29.80F
BOEING FIELD   CLOUDY    54  51  90 S14G26    29.87R
RENTON         CLOUDY    54  52  93 S16G24    29.87R
SEATAC AIRPORT LGT RAIN  51  49  92 SW20G32   29.87R
JBLM-MCCHORD   LGT RAIN  52  52 100 SW21G30   29.89R FOG
PUYALLUP         N/A     55  50  82 S12G26    29.89R
BREMERTON      CLOUDY    54  48  82 S23G33    29.87S
JBLM-FT LEWIS  LGT RAIN  52  52 100 S21G28    29.89R FOG
TACOMA NARROWS CLOUDY    51  50  96 SW15G22   29.88S
$$

WAZ001-503-506-510-514-515-292300-
NORTH INTERIOR

CITY           SKY/WX    TMP DP  RH WIND       PRES   REMARKS
BELLINGHAM     LGT RAIN  52  51  97 S8        29.79R
FRIDAY HARBOR  CLOUDY    54  44  69 SW8G18    29.81R
EASTSOUND      SUNNY     55  48  76 S10G16    29.77R
PORT ANGELES   LGT RAIN  54  45  71 W17G28    29.80R
EDIZ HOOK      CLOUDY    53  46  75 W22G29    29.80S
PORT TOWNSEND  CLOUDY    54  45  71 NW10G17   29.81R
NAS WHIDBEY    LGT RAIN  52  46  80 NW10      29.86R
ARLINGTON      CLOUDY    55  45  67 S17G25    29.83R
BURLINGTON     CLOUDY    52  50  93 VRB7G18   29.82R FOG
$$

WAZ020-022-039-040-504-511-512-292300-
SOUTHWEST INTERIOR

CITY           SKY/WX    TMP DP  RH WIND       PRES   REMARKS
SHELTON        LGT RAIN  52  49  89 SW22      29.87R FOG
OLYMPIA        PTSUNNY   52  50  93 SW16G28   29.91R
CHEHALIS       DRIZZLE   52  50  93 VRB6G16   29.94R
KELSO          CLOUDY    54  51  90 S6        29.98R
VANCOUVER      LGT RAIN  53  53 100 CALM      30.00S FOG
SCAPPOOSE, OR  LGT RAIN  54  53  97 S5        29.97F FOG
PORTLAND, OR   LGT RAIN  53  50  89 S9G18     30.01R FOG
$$

WAZ021-516-517-292300-
WASHINGTON COAST

CITY           SKY/WX    TMP DP  RH WIND       PRES   REMARKS
FORKS          CLOUDY    47  45  93 W9        29.91R
HOQUIAM        CLOUDY    50  47  89 W17G23    29.94R
ASTORIA, OR    CLOUDY    51  47  86 W17       29.99S
$$

WAZ019-023-024-040-567>569-292300-
CASCADE MOUNTAINS AND COLUMBIA GORGE

CITY           SKY/WX    TMP DP  RH WIND       PRES   REMARKS
STAMPEDE PASS  NOT AVBL
TROUTDALE, OR  LGT RAIN  55  51  86 S17G25    30.00S
THE DALLES, OR CLOUDY    59  51  75 N13       29.91F
$$

WAZ026-027-041>044-520-521-292300-
EAST SLOPES

CITY           SKY/WX    TMP DP  RH WIND       PRES   REMARKS
OMAK           CLOUDY    49  42  77 S16       29.80F
WENATCHEE      CLOUDY    46  43  89 CALM      29.82F
ELLENSBURG     CLOUDY    51  42  71 W7        29.83F
YAKIMA         CLOUDY    60  47  61 N3        29.83S
SUNNYSIDE ARPT CLOUDY    58  45  63 S9        29.87R
$$

WAZ028-034-035-292300-
COLUMBIA BASIN

CITY           SKY/WX    TMP DP  RH WIND       PRES   REMARKS
EPHRATA        CLOUDY    52  42  69 SW10      29.82F
MOSES LAKE     CLOUDY    56  45  66 SW10      29.84F
PASCO          CLOUDY    57  46  66 S17       29.91S
HERMISTON, OR  CLOUDY    56  48  74 E6        29.91F
$$

WAZ036>038-292300-
NORTHEAST WASHINGTON

CITY           SKY/WX    TMP DP  RH WIND       PRES   REMARKS
SPOKANE GEIGER CLOUDY    49  45  86 SW14G20   29.86F
SPOKANE FELTS  CLOUDY    50  47  89 SW8       29.87F
FAIRCHILD AFB  CLOUDY    48  48 100 SW10      29.85S
COEURDALENE,ID LGT RAIN  45  44  97 S8        29.88F
DEER PARK      LGT RAIN  43  41  93 MISG      29.87F FOG
$$

WAZ029>033-292300-
SOUTHEAST WASHINGTON

CITY           SKY/WX    TMP DP  RH WIND       PRES   REMARKS
PULLMAN        CLOUDY    49  46  90 S9        29.93S
LEWISTON, ID   CLOUDY    52  48  86 E3        29.92F
WALLA WALLA    CLOUDY    56  52  86 S13       29.91F
PENDLETON, OR  CLOUDY    53  50  89 E9        29.92F
$$




USA.gov is the U.S. government's official web portal to all federal, state and local government web resources and services.